QPF
0.00 0.00 0.00 0.01 0.02 0.02 0.02 0.02 0.02 0.03 0.04 0.03 0.03 0.04 0.03 0.03 0.05 0.05 0.05 0.06 0.09 0.11 0.10 0.09 0.07 0.06 0.06 0.09 0.09 0.07 0.06 0.06 0.05 0.04 0.03 0.03 0.02 0.02 0.03 0.02 0.02 0.02 0.02
0.00 0.00 0.00 0.00 0.01 0.01 0.01 0.01 0.01 0.01 0.02 0.03 0.03 0.04 0.04 0.04 0.04 0.04 0.03 0.02 0.02 0.03 0.06 0.07 0.05 0.04 0.05 0.07 0.08 0.05 0.05 0.05 0.04 0.04 0.03 0.02 0.01 0.01 0.02 0.02 0.03 0.03 0.03
0.00 0.00 0.00 0.01 0.01 0.01 0.01 0.01 0.02 0.01 0.01 0.02 0.03 0.03 0.03 0.04 0.04 0.03 0.02 0.02 0.01 0.02 0.03 0.04 0.04 0.03 0.04 0.06 0.08 0.06 0.04 0.04 0.04 0.04 0.04 0.03 0.02 0.02 0.01 0.02 0.02 0.02 0.02
0.00 0.00 0.01 0.01 0.01 0.01 0.01 0.01 0.01 0.02 0.02 0.02 0.01 0.02 0.01 0.02 0.03 0.03 0.02 0.03 0.02 0.02 0.02 0.03 0.03 0.03 0.03 0.09 0.10 0.08 0.06 0.05 0.03 0.02 0.02 0.02 0.01 0.01 0.01 0.01 0.01 0.02 0.02
0.00 0.00 0.00 0.01 0.00 0.01 0.01 0.00 0.01 0.01 0.01 0.01 0.01 0.01 0.01 0.01 0.02 0.03 0.02 0.02 0.02 0.02 0.02 0.03 0.03 0.03 0.04 0.08 0.12 0.09 0.07 0.05 0.03 0.01 0.01 0.02 0.01 0.01 0.01 0.01 0.01 0.01 0.02
0.00 0.00 0.00 0.00 0.00 0.01 0.01 0.01 0.01 0.02 0.01 0.01 0.01 0.01 0.01 0.02 0.03 0.04 0.04 0.03 0.03 0.02 0.02 0.02 0.03 0.03 0.04 0.07 0.10 0.09 0.06 0.04 0.03 0.02 0.01 0.01 0.01 0.01 0.01 0.01 0.01 0.01 0.02
0.00 0.00 0.01 0.01 0.01 0.00 0.00 0.01 0.01 0.01 0.01 0.01 0.01 0.01 0.01 0.02 0.03 0.04 0.04 0.04 0.03 0.03 0.04 0.04 0.05 0.05 0.05 0.07 0.06 0.07 0.05 0.03 0.02 0.02 0.02 0.01 0.01 0.01 0.01 0.01 0.01 0.01 0.01
0.00 0.00 0.00 0.01 0.01 0.01 0.01 0.00 0.01 0.01 0.01 0.01 0.01 0.02 0.02 0.02 0.02 0.03 0.04 0.04 0.04 0.04 0.05 0.06 0.05 0.05 0.06 0.06 0.06 0.04 0.03 0.02 0.02 0.02 0.01 0.01 0.01 0.01 0.01 0.01 0.01 0.01 0.01
0.00 0.00 0.00 0.00 0.00 0.00 0.01 0.01 0.01 0.01 0.01 0.01 0.01 0.02 0.03 0.03 0.03 0.02 0.03 0.03 0.04 0.04 0.04 0.04 0.03 0.02 0.03 0.04 0.06 0.04 0.03 0.02 0.02 0.02 0.01 0.02 0.01 0.01 0.01 0.01 0.01 0.01 0.01
0.00 0.00 0.00 0.00 0.00 0.00 0.01 0.01 0.00 0.01 0.01 0.01 0.01 0.01 0.02 0.03 0.03 0.03 0.02 0.02 0.02 0.03 0.03 0.02 0.02 0.01 0.02 0.03 0.04 0.03 0.02 0.02 0.01 0.01 0.01 0.01 0.01 0.02 0.02 0.01 0.01 0.01 0.01
0.00 0.00 0.00 0.00 0.00 0.01 0.01 0.01 0.01 0.01 0.01 0.01 0.02 0.01 0.01 0.02 0.02 0.02 0.02 0.02 0.02 0.02 0.02 0.02 0.02 0.01 0.01 0.01 0.04 0.03 0.03 0.01 0.01 0.01 0.01 0.01 0.01 0.01 0.01 0.01 0.01 0.01 0.02
0.00 0.00 0.01 0.01 0.01 0.02 0.01 0.01 0.01 0.02 0.01 0.01 0.02 0.02 0.02 0.02 0.02 0.02 0.02 0.02 0.03 0.02 0.02 0.02 0.02 0.01 0.01 0.01 0.02 0.03 0.03 0.01 0.01 0.00 0.00 0.01 0.01 0.01 0.01 0.01 0.01 0.01 0.01
0.01 0.01 0.01 0.01 0.01 0.01 0.01 0.01 0.01 0.02 0.01 0.01 0.02 0.02 0.02 0.02 0.02 0.02 0.02 0.01 0.02 0.02 0.01 0.01 0.01 0.01 0.01 0.01 0.02 0.03 0.02 0.01 0.00 0.00 0.00 0.00 0.00 0.01 0.01 0.01 0.01 0.01 0.01
0.01 0.01 0.01 0.01 0.01 0.00 0.00 0.01 0.01 0.01 0.01 0.01 0.02 0.02 0.01 0.01 0.02 0.02 0.02 0.02 0.02 0.01 0.01 0.01 0.01 0.01 0.01 0.01 0.01 0.03 0.02 0.01 0.00 0.00 0.00 0.00 0.00 0.00 0.01 0.01 0.01 0.01 0.01
0.01 0.01 0.01 0.01 0.02 0.01 0.01 0.01 0.01 0.01 0.01 0.01 0.01 0.01 0.01 0.01 0.01 0.02 0.03 0.02 0.02 0.02 0.02 0.01 0.01 0.02 0.02 0.02 0.02 0.02 0.02 0.01 0.01 0.00 0.00 0.00 0.00 0.00 0.00 0.01 0.01 0.01 0.01
0.01 0.01 0.01 0.01 0.01 0.02 0.02 0.02 0.02 0.01 0.01 0.01 0.01 0.01 0.01 0.01 0.01 0.01 0.02 0.03 0.02 0.02 0.02 0.01 0.02 0.02 0.02 0.02 0.02 0.02 0.01 0.01 0.01 0.00 0.00 0.00 0.00 0.00 0.01 0.01 0.01 0.01 0.01
0.01 0.01 0.00 0.01 0.01 0.01 0.02 0.02 0.02 0.01 0.01 0.01 0.01 0.01 0.01 0.01 0.01 0.01 0.01 0.02 0.02 0.02 0.02 0.02 0.02 0.02 0.02 0.02 0.02 0.02 0.02 0.02 0.01 0.01 0.00 0.00 0.00 0.00 0.01 0.01 0.01 0.01 0.01
0.00 0.00 0.01 0.01 0.01 0.01 0.01 0.01 0.01 0.01 0.00 0.01 0.01 0.01 0.01 0.01 0.01 0.01 0.02 0.01 0.02 0.02 0.01 0.01 0.01 0.01 0.02 0.02 0.02 0.02 0.02 0.02 0.01 0.01 0.01 0.00 0.00 0.01 0.01 0.01 0.01 0.01 0.01
0.00 0.01 0.01 0.01 0.01 0.01 0.01 0.01 0.01 0.00 0.00 0.00 0.01 0.01 0.01 0.01 0.01 0.02 0.02 0.02 0.01 0.01 0.01 0.01 0.01 0.01 0.01 0.01 0.02 0.03 0.02 0.02 0.01 0.01 0.02 0.01 0.01 0.01 0.01 0.01 0.01 0.01 0.01
0.00 0.00 0.00 0.01 0.01 0.01 0.01 0.00 0.00 0.00 0.01 0.01 0.01 0.01 0.01 0.01 0.01 0.01 0.01 0.01 0.01 0.01 0.01 0.01 0.01 0.01 0.02 0.02 0.02 0.03 0.03 0.03 0.02 0.02 0.02 0.01 0.01 0.01 0.01 0.01 0.01 0.01 0.01
0.00 0.00 0.00 0.00 0.00 0.00 0.00 0.00 0.00 0.01 0.01 0.01 0.01 0.01 0.01 0.01 0.01 0.01 0.01 0.01 0.01 0.01 0.02 0.02 0.02 0.02 0.02 0.02 0.03 0.02 0.02 0.03 0.03 0.02 0.02 0.01 0.01 0.01 0.02 0.02 0.02 0.02 0.02
0.00 0.00 0.00 0.00 0.00 0.00 0.00 0.00 0.01 0.01 0.01 0.01 0.01 0.01 0.01 0.00 0.01 0.01 0.01 0.01 0.01 0.02 0.02 0.02 0.02 0.02 0.02 0.02 0.02 0.03 0.03 0.03 0.04 0.03 0.03 0.03 0.02 0.02 0.01 0.02 0.04 0.04 0.03
0.01 0.00 0.00 0.00 0.00 0.00 0.00 0.00 0.00 0.01 0.01 0.01 0.01 0.01 0.01 0.00 0.01 0.01 0.01 0.01 0.01 0.01 0.02 0.02 0.02 0.02 0.02 0.02 0.02 0.02 0.02 0.02 0.03 0.04 0.04 0.03 0.03 0.03 0.02 0.02 0.03 0.03 0.04
0.01 0.01 0.01 0.00 0.00 0.00 0.00 0.00 0.00 0.01 0.01 0.01 0.01 0.01 0.01 0.00 0.01 0.01 0.01 0.01 0.01 0.00 0.01 0.01 0.01 0.01 0.01 0.01 0.02 0.01 0.02 0.02 0.02 0.03 0.04 0.02 0.02 0.02 0.02 0.02 0.03 0.03 0.02
0.01 0.01 0.01 0.01 0.00 0.00 0.00 0.00 0.01 0.01 0.01 0.01 0.01 0.01 0.01 0.01 0.01 0.02 0.03 0.02 0.01 0.01 0.00 0.01 0.01 0.02 0.02 0.02 0.03 0.03 0.03 0.03 0.04 0.03 0.02 0.02 0.01 0.02 0.02 0.02 0.02 0.03 0.03
0.01 0.01 0.01 0.01 0.00 0.00 0.00 0.00 0.01 0.01 0.01 0.00 0.00 0.00 0.00 0.01 0.02 0.03 0.02 0.02 0.02 0.01 0.01 0.01 0.02 0.02 0.02 0.02 0.03 0.03 0.02 0.03 0.04 0.03 0.02 0.01 0.01 0.02 0.02 0.02 0.02 0.03 0.03
MSLP
1013.69 1013.88 1014.04 1014.18 1014.31 1014.47 1014.68 1014.94 1015.26 1015.60 1015.95 1016.27 1016.53 1016.75 1016.92 1017.05 1017.19 1017.33 1017.50 1017.68 1017.86 1018.03 1018.16 1018.24 1018.26 1018.22 1018.15 1018.06 1017.96 1017.88 1017.80 1017.73 1017.67 1017.61 1017.53 1017.45 1017.37 1017.27 1017.18 1017.09 1017.01 1016.93 1016.85
1013.78 1013.98 1014.17 1014.34 1014.52 1014.71 1014.94 1015.21 1015.51 1015.83 1016.14 1016.41 1016.65 1016.84 1016.99 1017.12 1017.25 1017.40 1017.57 1017.77 1017.98 1018.18 1018.35 1018.48 1018.55 1018.57 1018.54 1018.49 1018.41 1018.33 1018.25 1018.17 1018.09 1018.01 1017.94 1017.86 1017.79 1017.71 1017.63 1017.55 1017.45 1017.35 1017.24
1013.88 1014.08 1014.30 1014.52 1014.74 1014.99 1015.25 1015.55 1015.85 1016.16 1016.45 1016.70 1016.91 1017.08 1017.21 1017.33 1017.45 1017.58 1017.74 1017.92 1018.12 1018.32 1018.50 1018.65 1018.76 1018.83 1018.85 1018.84 1018.80 1018.74 1018.66 1018.57 1018.48 1018.39 1018.31 1018.23 1018.16 1018.10 1018.03 1017.96 1017.86 1017.75 1017.62
1013.97 1014.18 1014.41 1014.68 1014.96 1015.25 1015.57 1015.89 1016.22 1016.53 1016.82 1017.07 1017.28 1017.44 1017.57 1017.68 1017.77 1017.88 1017.99 1018.13 1018.28 1018.44 1018.60 1018.75 1018.89 1018.99 1019.07 1019.11 1019.11 1019.08 1019.02 1018.93 1018.83 1018.73 1018.63 1018.54 1018.47 1018.41 1018.35 1018.29 1018.21 1018.10 1017.97
1014.06 1014.26 1014.51 1014.81 1015.13 1015.48 1015.84 1016.20 1016.55 1016.89 1017.19 1017.46 1017.68 1017.85 1017.99 1018.09 1018.17 1018.23 1018.29 1018.36 1018.44 1018.55 1018.67 1018.80 1018.94 1019.08 1019.20 1019.30 1019.36 1019.37 1019.33 1019.26 1019.15 1019.03 1018.91 1018.80 1018.71 1018.65 1018.59 1018.54 1018.48 1018.39 1018.28
1014.17 1014.35 1014.60 1014.91 1015.26 1015.64 1016.03 1016.41 1016.79 1017.14 1017.47 1017.76 1018.01 1018.21 1018.37 1018.48 1018.55 1018.58 1018.59 1018.60 1018.61 1018.64 1018.71 1018.82 1018.96 1019.13 1019.30 1019.45 1019.57 1019.64 1019.64 1019.58 1019.47 1019.33 1019.18 1019.04 1018.93 1018.84 1018.79 1018.74 1018.70 1018.65 1018.57
1014.31 1014.47 1014.70 1015.00 1015.35 1015.73 1016.12 1016.51 1016.89 1017.25 1017.60 1017.92 1018.21 1018.45 1018.65 1018.78 1018.86 1018.88 1018.85 1018.80 1018.76 1018.73 1018.76 1018.84 1018.99 1019.18 1019.40 1019.61 1019.79 1019.91 1019.96 1019.92 1019.81 1019.65 1019.47 1019.29 1019.15 1019.04 1018.97 1018.93 1018.91 1018.89 1018.85
1014.51 1014.63 1014.83 1015.10 1015.42 1015.77 1016.14 1016.50 1016.87 1017.22 1017.57 1017.91 1018.23 1018.52 1018.76 1018.94 1019.04 1019.07 1019.04 1018.97 1018.88 1018.82 1018.82 1018.89 1019.04 1019.26 1019.53 1019.80 1020.04 1020.22 1020.30 1020.29 1020.18 1020.01 1019.80 1019.60 1019.42 1019.28 1019.20 1019.16 1019.16 1019.17 1019.17
1014.74 1014.83 1014.99 1015.22 1015.50 1015.80 1016.12 1016.44 1016.76 1017.09 1017.42 1017.76 1018.11 1018.43 1018.72 1018.94 1019.09 1019.15 1019.14 1019.07 1018.99 1018.92 1018.91 1018.98 1019.15 1019.40 1019.70 1020.02 1020.31 1020.53 1020.66 1020.67 1020.57 1020.40 1020.18 1019.95 1019.75 1019.59 1019.50 1019.46 1019.46 1019.50 1019.54
1014.99 1015.05 1015.19 1015.37 1015.60 1015.85 1016.10 1016.36 1016.63 1016.91 1017.21 1017.54 1017.89 1018.24 1018.56 1018.83 1019.03 1019.14 1019.17 1019.13 1019.07 1019.02 1019.02 1019.11 1019.29 1019.56 1019.89 1020.24 1020.57 1020.82 1020.98 1021.02 1020.95 1020.79 1020.57 1020.34 1020.13 1019.97 1019.87 1019.83 1019.85 1019.90 1019.97
1015.18 1015.25 1015.37 1015.53 1015.72 1015.92 1016.12 1016.32 1016.52 1016.75 1017.01 1017.31 1017.65 1018.00 1018.35 1018.66 1018.91 1019.07 1019.15 1019.16 1019.14 1019.12 1019.15 1019.25 1019.44 1019.71 1020.05 1020.41 1020.75 1021.03 1021.21 1021.29 1021.25 1021.12 1020.93 1020.73 1020.54 1020.40 1020.30 1020.28 1020.30 1020.35 1020.43
1015.28 1015.36 1015.49 1015.65 1015.82 1015.99 1016.15 1016.31 1016.47 1016.65 1016.86 1017.13 1017.45 1017.79 1018.15 1018.48 1018.77 1018.98 1019.11 1019.18 1019.20 1019.22 1019.27 1019.37 1019.56 1019.83 1020.15 1020.50 1020.83 1021.11 1021.31 1021.42 1021.42 1021.35 1021.22 1021.07 1020.93 1020.82 1020.76 1020.75 1020.78 1020.84 1020.92
1015.21 1015.33 1015.49 1015.67 1015.85 1016.03 1016.18 1016.32 1016.46 1016.61 1016.79 1017.02 1017.31 1017.64 1017.99 1018.33 1018.64 1018.89 1019.07 1019.18 1019.25 1019.30 1019.37 1019.47 1019.64 1019.88 1020.16 1020.47 1020.78 1021.05 1021.26 1021.40 1021.46 1021.45 1021.41 1021.34 1021.27 1021.22 1021.21 1021.22 1021.26 1021.32 1021.39
1014.97 1015.14 1015.34 1015.56 1015.78 1015.98 1016.16 1016.31 1016.45 1016.59 1016.75 1016.96 1017.22 1017.53 1017.86 1018.21 1018.53 1018.81 1019.02 1019.18 1019.28 1019.36 1019.44 1019.53 1019.67 1019.86 1020.09 1020.35 1020.62 1020.87 1021.08 1021.25 1021.37 1021.44 1021.49 1021.51 1021.53 1021.55 1021.59 1021.64 1021.69 1021.75 1021.80
1014.56 1014.78 1015.03 1015.30 1015.57 1015.82 1016.04 1016.23 1016.39 1016.54 1016.70 1016.90 1017.15 1017.43 1017.76 1018.10 1018.43 1018.72 1018.97 1019.16 1019.30 1019.40 1019.48 1019.57 1019.67 1019.81 1019.98 1020.18 1020.40 1020.62 1020.83 1021.03 1021.20 1021.35 1021.48 1021.59 1021.69 1021.79 1021.88 1021.96 1022.03 1022.08 1022.12
1014.04 1014.30 1014.59 1014.91 1015.23 1015.54 1015.81 1016.04 1016.24 1016.42 1016.60 1016.80 1017.03 1017.31 1017.63 1017.97 1018.30 1018.62 1018.89 1019.12 1019.29 1019.41 1019.51 1019.58 1019.66 1019.75 1019.87 1020.01 1020.18 1020.37 1020.57 1020.78 1021.00 1021.20 1021.40 1021.59 1021.76 1021.91 1022.04 1022.14 1022.22 1022.27 1022.30
1013.48 1013.76 1014.08 1014.44 1014.81 1015.16 1015.47 1015.75 1015.99 1016.19 1016.39 1016.60 1016.84 1017.12 1017.44 1017.78 1018.13 1018.47 1018.78 1019.04 1019.25 1019.41 1019.52 1019.60 1019.66 1019.73 1019.80 1019.90 1020.03 1020.19 1020.38 1020.59 1020.81 1021.05 1021.29 1021.51 1021.71 1021.89 1022.04 1022.15 1022.22 1022.27 1022.29
1012.94 1013.24 1013.58 1013.96 1014.35 1014.73 1015.07 1015.38 1015.64 1015.87 1016.09 1016.31 1016.56 1016.84 1017.16 1017.52 1017.89 1018.26 1018.61 1018.92 1019.17 1019.37 1019.52 1019.62 1019.69 1019.75 1019.80 1019.88 1019.97 1020.10 1020.27 1020.46 1020.68 1020.91 1021.14 1021.36 1021.56 1021.73 1021.86 1021.96 1022.02 1022.06 1022.09
1012.48 1012.79 1013.15 1013.54 1013.93 1014.32 1014.67 1014.97 1015.24 1015.48 1015.70 1015.93 1016.19 1016.48 1016.82 1017.19 1017.59 1018.00 1018.39 1018.75 1019.06 1019.31 1019.50 1019.64 1019.73 1019.80 1019.86 1019.92 1020.00 1020.11 1020.24 1020.40 1020.58 1020.77 1020.97 1021.14 1021.30 1021.42 1021.51 1021.58 1021.62 1021.65 1021.69
1012.11 1012.45 1012.82 1013.21 1013.59 1013.96 1014.30 1014.59 1014.85 1015.07 1015.29 1015.52 1015.78 1016.08 1016.43 1016.82 1017.25 1017.69 1018.12 1018.53 1018.89 1019.20 1019.44 1019.63 1019.76 1019.86 1019.93 1020.00 1020.07 1020.15 1020.26 1020.37 1020.50 1020.63 1020.75 1020.86 1020.94 1020.99 1021.02 1021.04 1021.06 1021.08 1021.12
1011.82 1012.19 1012.58 1012.97 1013.35 1013.69 1014.00 1014.26 1014.49 1014.69 1014.89 1015.11 1015.37 1015.67 1016.03 1016.44 1016.88 1017.35 1017.82 1018.26 1018.67 1019.02 1019.32 1019.55 1019.73 1019.86 1019.96 1020.05 1020.12 1020.19 1020.27 1020.34 1020.41 1020.46 1020.50 1020.52 1020.52 1020.49 1020.46 1020.42 1020.40 1020.41 1020.46
1011.55 1011.98 1012.40 1012.81 1013.17 1013.50 1013.77 1014.00 1014.19 1014.37 1014.54 1014.75 1014.99 1015.30 1015.66 1016.07 1016.53 1017.01 1017.50 1017.97 1018.40 1018.79 1019.12 1019.39 1019.61 1019.78 1019.91 1020.01 1020.10 1020.17 1020.22 1020.26 1020.27 1020.27 1020.23 1020.17 1020.09 1019.99 1019.89 1019.81 1019.75 1019.75 1019.79
1011.27 1011.77 1012.24 1012.66 1013.04 1013.35 1013.60 1013.80 1013.96 1014.11 1014.27 1014.46 1014.69 1014.99 1015.35 1015.76 1016.22 1016.70 1017.18 1017.65 1018.10 1018.49 1018.84 1019.14 1019.38 1019.59 1019.75 1019.88 1019.98 1020.05 1020.10 1020.12 1020.10 1020.05 1019.97 1019.85 1019.71 1019.56 1019.41 1019.29 1019.21 1019.18 1019.21
1010.94 1011.52 1012.05 1012.51 1012.90 1013.21 1013.45 1013.64 1013.78 1013.92 1014.07 1014.25 1014.49 1014.78 1015.13 1015.54 1015.98 1016.44 1016.91 1017.36 1017.79 1018.17 1018.52 1018.82 1019.08 1019.30 1019.48 1019.64 1019.76 1019.85 1019.91 1019.93 1019.91 1019.85 1019.74 1019.61 1019.45 1019.27 1019.10 1018.96 1018.85 1018.79 1018.79
1010.58 1011.23 1011.82 1012.32 1012.73 1013.06 1013.30 1013.49 1013.65 1013.79 1013.95 1014.14 1014.38 1014.67 1015.02 1015.41 1015.83 1016.26 1016.69 1017.11 1017.50 1017.86 1018.19 1018.48 1018.73 1018.96 1019.16 1019.33 1019.47 1019.59 1019.67 1019.71 1019.71 1019.67 1019.59 1019.47 1019.32 1019.15 1018.99 1018.83 1018.71 1018.62 1018.57
1010.22 1010.93 1011.56 1012.10 1012.54 1012.89 1013.16 1013.37 1013.54 1013.71 1013.89 1014.10 1014.36 1014.66 1015.01 1015.38 1015.78 1016.17 1016.57 1016.93 1017.28 1017.60 1017.89 1018.15 1018.39 1018.61 1018.82 1019.00 1019.17 1019.31 1019.42 1019.50 1019.54 1019.53 1019.49 1019.42 1019.31 1019.17 1019.03 1018.88 1018.74 1018.62 1018.52
Thickness
5742 5741 5740 5739 5738 5738 5737 5737 5736 5735 5735 5735 5734 5734 5733 5732 5731 5730 5728 5728 5728 5727 5727 5726 5725 5725 5725 5724 5724 5724 5724 5724 5724 5724 5724 5724 5725 5725 5725 5725 5725 5725 5726
5741 5739 5737 5736 5735 5735 5735 5733 5733 5732 5731 5730 5730 5729 5728 5727 5727 5726 5724 5723 5723 5723 5722 5721 5721 5720 5720 5719 5719 5718 5718 5718 5719 5719 5719 5719 5719 5719 5720 5720 5720 5720 5721
5738 5736 5734 5733 5732 5732 5731 5729 5728 5727 5726 5725 5724 5724 5724 5723 5722 5722 5721 5720 5719 5718 5717 5717 5716 5715 5715 5714 5714 5713 5713 5713 5713 5713 5713 5714 5714 5714 5714 5715 5715 5715 5716
5735 5732 5730 5729 5728 5727 5726 5724 5722 5720 5719 5718 5718 5718 5718 5718 5718 5717 5717 5716 5715 5713 5712 5712 5711 5710 5709 5709 5708 5708 5708 5708 5708 5708 5708 5708 5708 5708 5708 5709 5710 5710 5710
5731 5728 5726 5725 5724 5722 5721 5719 5716 5715 5712 5711 5711 5711 5712 5712 5713 5713 5712 5711 5710 5709 5708 5707 5706 5705 5704 5704 5704 5703 5703 5702 5702 5702 5702 5702 5702 5702 5702 5703 5704 5705 5705
5727 5724 5723 5721 5720 5717 5715 5713 5710 5709 5707 5706 5707 5705 5706 5706 5707 5707 5707 5707 5706 5705 5704 5703 5702 5701 5700 5699 5699 5699 5698 5697 5697 5697 5696 5696 5696 5696 5697 5697 5698 5699 5699
5723 5720 5718 5717 5715 5712 5710 5708 5705 5703 5701 5702 5698 5696 5698 5701 5701 5702 5703 5702 5702 5701 5701 5699 5698 5697 5696 5695 5695 5694 5693 5692 5692 5691 5691 5691 5691 5691 5691 5692 5693 5693 5694
5718 5717 5714 5712 5710 5707 5705 5703 5700 5697 5696 5696 5692 5687 5684 5686 5691 5696 5696 5696 5697 5697 5696 5696 5695 5693 5692 5691 5690 5689 5688 5687 5687 5687 5686 5686 5686 5686 5686 5686 5687 5687 5688
5714 5713 5711 5708 5706 5703 5700 5698 5696 5693 5689 5690 5690 5685 5678 5675 5679 5685 5689 5690 5690 5691 5691 5691 5690 5689 5688 5686 5685 5684 5683 5682 5682 5682 5682 5681 5681 5681 5681 5681 5681 5682 5682
5710 5708 5707 5704 5702 5699 5696 5695 5693 5691 5687 5683 5684 5684 5683 5679 5673 5672 5678 5682 5684 5685 5685 5686 5685 5685 5684 5682 5680 5679 5678 5678 5677 5677 5677 5676 5676 5676 5676 5676 5676 5676 5677
5706 5704 5702 5700 5697 5695 5693 5691 5689 5687 5684 5681 5678 5678 5677 5676 5675 5669 5666 5670 5674 5678 5680 5680 5680 5679 5679 5677 5676 5675 5674 5673 5672 5672 5672 5671 5671 5671 5671 5670 5671 5671 5671
5700 5699 5698 5695 5693 5691 5688 5686 5684 5682 5680 5678 5676 5674 5671 5669 5668 5666 5663 5663 5664 5669 5673 5675 5675 5674 5674 5672 5671 5670 5669 5668 5667 5666 5666 5666 5666 5666 5666 5666 5666 5666 5666
5693 5693 5692 5691 5689 5686 5684 5682 5680 5677 5676 5674 5671 5670 5669 5668 5667 5665 5660 5658 5659 5662 5666 5668 5670 5670 5669 5667 5666 5665 5664 5663 5662 5661 5661 5660 5660 5660 5660 5660 5660 5661 5661
5691 5691 5689 5686 5684 5682 5681 5678 5676 5674 5673 5671 5669 5667 5665 5664 5664 5661 5658 5654 5651 5653 5657 5659 5663 5664 5663 5662 5661 5660 5659 5658 5657 5656 5655 5655 5655 5655 5655 5655 5655 5656 5656
5690 5688 5686 5683 5681 5678 5676 5674 5671 5670 5669 5666 5665 5663 5661 5660 5659 5658 5656 5653 5648 5643 5645 5651 5654 5657 5657 5657 5656 5655 5654 5653 5652 5652 5651 5650 5650 5650 5650 5650 5650 5651 5651
5688 5685 5683 5680 5677 5675 5672 5670 5667 5666 5664 5662 5660 5658 5656 5655 5654 5653 5651 5649 5647 5643 5640 5644 5647 5650 5651 5651 5650 5649 5649 5648 5647 5647 5646 5646 5646 5646 5645 5645 5646 5646 5647
5685 5682 5679 5676 5673 5671 5668 5665 5663 5661 5659 5657 5656 5653 5651 5650 5648 5646 5645 5644 5642 5640 5636 5638 5641 5643 5643 5643 5642 5643 5643 5643 5642 5642 5642 5642 5641 5641 5641 5641 5641 5641 5642
5682 5679 5676 5672 5669 5667 5664 5661 5658 5656 5654 5651 5650 5648 5646 5645 5642 5640 5639 5637 5636 5636 5632 5630 5633 5635 5635 5636 5636 5636 5637 5637 5637 5637 5637 5637 5636 5636 5636 5636 5636 5636 5636
5678 5675 5672 5668 5665 5662 5659 5656 5654 5651 5649 5647 5645 5642 5640 5638 5635 5633 5632 5631 5630 5630 5628 5625 5625 5627 5628 5629 5629 5630 5630 5631 5631 5632 5632 5631 5631 5631 5631 5631 5631 5631 5631
5673 5670 5667 5664 5661 5658 5654 5652 5649 5646 5643 5641 5639 5636 5634 5631 5628 5627 5625 5624 5623 5621 5620 5618 5618 5618 5619 5621 5621 5620 5621 5622 5624 5625 5625 5625 5626 5626 5626 5626 5626 5626 5626
5668 5665 5662 5659 5656 5652 5649 5645 5643 5640 5637 5634 5632 5630 5627 5625 5624 5621 5620 5617 5616 5613 5612 5610 5609 5610 5610 5610 5610 5612 5612 5613 5616 5618 5618 5618 5619 5619 5620 5620 5621 5621 5621
5662 5659 5656 5652 5649 5646 5643 5640 5636 5633 5630 5628 5625 5622 5621 5618 5617 5615 5614 5612 5611 5608 5605 5603 5602 5602 5602 5603 5603 5604 5603 5603 5604 5610 5610 5611 5612 5612 5613 5614 5615 5616 5616
5655 5652 5649 5646 5642 5639 5637 5634 5630 5626 5624 5622 5620 5617 5615 5613 5610 5608 5607 5606 5604 5603 5602 5599 5597 5596 5596 5597 5597 5597 5596 5596 5597 5602 5602 5602 5605 5605 5607 5609 5609 5609 5609
5647 5645 5642 5640 5635 5632 5630 5627 5624 5620 5617 5616 5614 5612 5609 5606 5604 5602 5600 5598 5597 5597 5596 5595 5594 5593 5593 5593 5592 5592 5591 5592 5594 5596 5596 5594 5597 5598 5601 5602 5602 5602 5602
5640 5638 5635 5632 5628 5625 5623 5620 5617 5613 5610 5609 5608 5606 5603 5600 5599 5597 5593 5591 5590 5590 5590 5590 5589 5588 5587 5587 5586 5585 5584 5583 5583 5586 5588 5587 5589 5591 5593 5594 5594 5594 5594
5633 5630 5627 5625 5622 5618 5616 5613 5610 5607 5604 5602 5600 5598 5596 5593 5592 5589 5586 5584 5582 5582 5582 5582 5581 5581 5581 5580 5580 5578 5577 5575 5574 5576 5580 5579 5580 5580 5581 5585 5585 5584 5584